{"data":{"norad_id":43441,"epoch":"2026-09-20T04:50:34.789920Z","epoch_age_seconds":80571,"freshness":"FRESH","line1":"1 43441U 18040C   26263.20179155  .00004080  00000+0  15641-3 0  9999","line2":"2 43441  97.0347 281.8879 0007239 247.4679 112.5795 15.27005437128770","mean_motion":15.27005437,"eccentricity":0.0007239,"inclination_deg":97.0347,"raan_deg":281.8879,"arg_perigee_deg":247.4679,"mean_anomaly_deg":112.5795,"bstar":0.00015641,"rev_number":12877,"period_min":94.302218257262,"perigee_km":479.80202535688,"apogee_km":489.7381422328,"semimajor_km":6862.9070837948,"source":"CELESTRAK","updated_at":"2026-09-20T09:00:14.321443Z"}}